| time (UTC) | temp F | wind direction | speed knots | gust knots | rain 1hr in | rain 24hr in | rain mn in | humidity % | barometer mb |
| 20260503050026 | 48 | 49 | 0.0 | 0.0 | 0.00 | 0.07 | 0.00 | 98 | 1014.3 |
| 20260503045526 | 48 | 51 | 0.0 | 0.0 | 0.00 | 0.07 | 0.00 | 98 | 1014.2 |
| 20260503045026 | 48 | 51 | 0.0 | 0.0 | 0.00 | 0.07 | 0.00 | 98 | 1014.3 |
| 20260503044026 | 48 | 48 | 0.0 | 0.0 | 0.00 | 0.07 | 0.00 | 99 | 1014.3 |
| 20260503043526 | 48 | 46 | 0.0 | 0.0 | 0.00 | 0.07 | 0.00 | 99 | 1014.3 |
| 20260503042526 | 48 | 39 | 0.0 | 0.0 | 0.00 | 0.07 | 0.00 | 99 | 1014.2 |
| 20260503042027 | 48 | 41 | 0.0 | 0.0 | 0.00 | 0.07 | 0.00 | 98 | 1014.1 |
| 20260503041526 | 48 | 43 | 0.0 | 0.0 | 0.00 | 0.07 | 0.00 | 98 | 1014.1 |
| 20260503041026 | 48 | 43 | 0.0 | 0.0 | 0.00 | 0.07 | 0.00 | 98 | 1014.1 |
| 20260503040539 | 48 | 43 | 0.0 | 0.0 | 0.00 | 0.07 | 0.00 | 98 | 1014.1 |
| 20260503040027 | 48 | 43 | 0.0 | 0.0 | 0.00 | 0.07 | 0.07 | 98 | 1014.0 |
| 20260503035026 | 48 | 43 | 0.0 | 0.0 | 0.00 | 0.07 | 0.07 | 98 | 1014.0 |
| 20260503034526 | 48 | 44 | 0.0 | 0.0 | 0.00 | 0.07 | 0.07 | 98 | 1014.0 |
| 20260503034026 | 48 | 44 | 0.0 | 0.0 | 0.00 | 0.07 | 0.07 | 98 | 1014.0 |
| 20260503033526 | 48 | 38 | 0.0 | 0.0 | 0.00 | 0.07 | 0.07 | 98 | 1013.9 |
| 20260503033026 | 48 | 39 | 0.0 | 0.0 | 0.00 | 0.07 | 0.07 | 98 | 1014.1 |
| 20260503032526 | 48 | 39 | 0.0 | 0.0 | 0.00 | 0.07 | 0.07 | 98 | 1013.9 |
| 20260503031026 | 49 | 39 | 0.0 | 0.0 | 0.00 | 0.07 | 0.07 | 98 | 1013.6 |
| 20260503030526 | 49 | 39 | 0.0 | 0.0 | 0.00 | 0.07 | 0.07 | 98 | 1013.6 |
| 20260503030026 | 49 | 39 | 0.0 | 0.0 | 0.00 | 0.07 | 0.07 | 98 | 1013.7 |
| 20260503025543 | 49 | 39 | 0.0 | 0.0 | 0.00 | 0.07 | 0.07 | 98 | 1013.6 |
| 20260503025026 | 49 | 39 | 0.0 | 0.0 | 0.00 | 0.07 | 0.07 | 98 | 1013.6 |
| 20260503024526 | 49 | 39 | 0.0 | 0.0 | 0.00 | 0.07 | 0.07 | 98 | 1013.4 |
| 20260503022026 | 50 | 39 | 0.0 | 0.0 | 0.00 | 0.07 | 0.07 | 98 | 1013.3 |
| 20260503021526 | 50 | 40 | 0.0 | 0.0 | 0.00 | 0.07 | 0.07 | 97 | 1013.3 |
| 20260503021028 | 50 | 40 | 0.0 | 0.0 | 0.00 | 0.07 | 0.07 | 97 | 1013.5 |
| 20260503020527 | 50 | 46 | 0.0 | 0.0 | 0.00 | 0.07 | 0.07 | 97 | 1013.3 |
| 20260503015526 | 50 | 47 | 0.0 | 0.0 | 0.00 | 0.07 | 0.07 | 97 | 1013.4 |
| 20260503015026 | 50 | 47 | 0.0 | 0.0 | 0.00 | 0.07 | 0.07 | 97 | 1013.3 |
| 20260503014527 | 50 | 43 | 0.0 | 0.0 | 0.00 | 0.07 | 0.07 | 97 | 1013.5 |
| 20260503014026 | 50 | 38 | 0.0 | 0.0 | 0.00 | 0.07 | 0.07 | 97 | 1013.4 |
| 20260503013529 | 50 | 38 | 0.0 | 0.0 | 0.00 | 0.07 | 0.07 | 96 | 1013.2 |
| 20260503013026 | 50 | 38 | 0.0 | 0.0 | 0.00 | 0.07 | 0.07 | 96 | 1013.2 |
| 20260503012526 | 50 | 38 | 0.0 | 0.0 | 0.00 | 0.07 | 0.07 | 96 | 1013.1 |
| 20260503012114 | 50 | 38 | 0.0 | 0.0 | 0.00 | 0.07 | 0.07 | 96 | 1013.0 |
| 20260503011526 | 50 | 38 | 0.0 | 0.0 | 0.00 | 0.07 | 0.07 | 96 | 1012.9 |
| 20260503011027 | 51 | 38 | 0.0 | 0.0 | 0.00 | 0.07 | 0.07 | 96 | 1012.8 |
| 20260503010026 | 51 | 38 | 0.0 | 0.0 | 0.00 | 0.07 | 0.07 | 95 | 1012.7 |
| 20260503005526 | 51 | 38 | 0.0 | 0.0 | 0.00 | 0.07 | 0.07 | 95 | 1012.7 |
| 20260503005030 | 51 | 38 | 0.0 | 0.0 | 0.00 | 0.07 | 0.07 | 95 | 1012.5 |
| 20260503004526 | 52 | 38 | 0.0 | 0.0 | 0.00 | 0.07 | 0.07 | 94 | 1012.4 |
| 20260503003527 | 52 | 38 | 0.0 | 0.0 | 0.00 | 0.07 | 0.07 | 94 | 1012.3 |
| 20260503003026 | 52 | 38 | 0.0 | 0.0 | 0.00 | 0.07 | 0.07 | 93 | 1012.2 |
| 20260503002526 | 53 | 38 | 0.0 | 0.0 | 0.00 | 0.07 | 0.07 | 93 | 1012.3 |
| 20260503001526 | 53 | 38 | 0.0 | 0.0 | 0.00 | 0.07 | 0.07 | 92 | 1012.1 |
| 20260503001051 | 53 | 38 | 0.0 | 0.0 | 0.00 | 0.07 | 0.07 | 91 | 1011.8 |
| 20260503000527 | 54 | 38 | 0.0 | 0.0 | 0.00 | 0.07 | 0.07 | 91 | 1011.8 |
| 20260503000028 | 54 | 38 | 0.0 | 0.0 | 0.00 | 0.07 | 0.07 | 90 | 1011.7 |
| 20260502235526 | 54 | 38 | 0.0 | 0.0 | 0.00 | 0.07 | 0.07 | 91 | 1011.6 |
| 20260502234526 | 54 | 38 | 0.0 | 0.0 | 0.00 | 0.07 | 0.07 | 90 | 1011.5 |
| 20260502233526 | 54 | 38 | 0.0 | 0.0 | 0.00 | 0.07 | 0.07 | 91 | 1011.6 |
| 20260502233026 | 54 | 38 | 0.0 | 0.0 | 0.00 | 0.07 | 0.07 | 91 | 1011.6 |
| 20260502232526 | 54 | 38 | 0.0 | 0.0 | 0.00 | 0.07 | 0.07 | 90 | 1011.6 |
| 20260502231525 | 54 | 39 | 0.0 | 0.0 | 0.00 | 0.07 | 0.07 | 89 | 1011.5 |
| 20260502231025 | 54 | 39 | 0.0 | 0.0 | 0.00 | 0.07 | 0.07 | 89 | 1011.3 |
| 20260502230525 | 54 | 39 | 0.0 | 0.0 | 0.00 | 0.07 | 0.07 | 89 | 1011.3 |
| 20260502225525 | 55 | 39 | 0.0 | 0.0 | 0.00 | 0.07 | 0.07 | 89 | 1011.4 |
| 20260502225026 | 55 | 39 | 0.0 | 0.0 | 0.00 | 0.07 | 0.07 | 89 | 1011.3 |
| 20260502224526 | 55 | 39 | 0.0 | 0.0 | 0.00 | 0.07 | 0.07 | 88 | 1011.3 |
| 20260502224025 | 55 | 39 | 0.0 | 0.0 | 0.00 | 0.07 | 0.07 | 87 | 1011.3 |
| 20260502223525 | 55 | 39 | 0.0 | 0.0 | 0.00 | 0.07 | 0.07 | 87 | 1011.3 |
| 20260502223035 | 55 | 39 | 0.0 | 0.0 | 0.00 | 0.07 | 0.07 | 87 | 1011.4 |
| 20260502222525 | 55 | 38 | 0.0 | 0.0 | 0.00 | 0.07 | 0.07 | 88 | 1011.3 |
| 20260502222025 | 55 | 40 | 0.0 | 0.0 | 0.00 | 0.07 | 0.07 | 88 | 1011.4 |
| 20260502221525 | 55 | 42 | 0.0 | 0.0 | 0.00 | 0.07 | 0.07 | 88 | 1011.4 |
| 20260502221032 | 55 | 38 | 0.0 | 0.9 | 0.00 | 0.07 | 0.07 | 87 | 1011.2 |
| 20260502220525 | 55 | 38 | 0.0 | 0.0 | 0.00 | 0.07 | 0.07 | 88 | 1011.1 |
| 20260502220026 | 55 | 38 | 0.0 | 0.9 | 0.00 | 0.07 | 0.07 | 86 | 1011.0 |
| 20260502215525 | 56 | 38 | 0.0 | 0.0 | 0.00 | 0.07 | 0.07 | 85 | 1011.0 |
| 20260502215030 | 56 | 41 | 0.0 | 0.0 | 0.00 | 0.07 | 0.07 | 84 | 1011.0 |
| 20260502214526 | 56 | 50 | 0.0 | 0.0 | 0.00 | 0.07 | 0.07 | 84 | 1011.0 |
| 20260502214026 | 56 | 54 | 0.0 | 0.9 | 0.00 | 0.07 | 0.07 | 84 | 1011.0 |
| 20260502213525 | 56 | 43 | 0.0 | 0.0 | 0.00 | 0.07 | 0.07 | 86 | 1011.1 |
| 20260502213026 | 55 | 39 | 0.0 | 0.0 | 0.00 | 0.07 | 0.07 | 86 | 1011.1 |
| 20260502212526 | 56 | 37 | 0.0 | 0.9 | 0.00 | 0.07 | 0.07 | 88 | 1010.9 |
| 20260502212025 | 56 | 37 | 0.0 | 0.0 | 0.00 | 0.07 | 0.07 | 85 | 1011.0 |
| 20260502211529 | 56 | 44 | 0.0 | 0.0 | 0.00 | 0.07 | 0.07 | 86 | 1010.8 |
| 20260502211025 | 56 | 44 | 0.0 | 0.9 | 0.00 | 0.07 | 0.07 | 84 | 1010.9 |
| 20260502210525 | 56 | 46 | 0.0 | 1.7 | 0.00 | 0.07 | 0.07 | 83 | 1011.0 |
| 20260502205525 | 56 | 36 | 0.0 | 0.9 | 0.00 | 0.07 | 0.07 | 85 | 1011.1 |
| 20260502204525 | 56 | 38 | 0.0 | 0.9 | 0.00 | 0.07 | 0.07 | 86 | 1011.1 |
| 20260502204025 | 56 | 53 | 0.0 | 0.9 | 0.00 | 0.07 | 0.07 | 85 | 1011.1 |
| 20260502203025 | 56 | 52 | 0.0 | 0.9 | 0.00 | 0.07 | 0.07 | 83 | 1011.2 |
| 20260502202525 | 56 | 41 | 0.0 | 1.7 | 0.00 | 0.07 | 0.07 | 83 | 1011.1 |
| 20260502202025 | 56 | 45 | 0.0 | 0.0 | 0.00 | 0.07 | 0.07 | 84 | 1011.1 |
| 20260502201525 | 56 | 49 | 0.0 | 1.7 | 0.00 | 0.07 | 0.07 | 83 | 1011.0 |
| 20260502201025 | 56 | 40 | 0.0 | 0.9 | 0.00 | 0.07 | 0.07 | 85 | 1011.0 |
| 20260502200525 | 56 | 44 | 0.0 | 0.9 | 0.00 | 0.07 | 0.07 | 84 | 1011.0 |
| 20260502200025 | 56 | 47 | 0.0 | 0.9 | 0.00 | 0.07 | 0.07 | 84 | 1011.2 |
| 20260502195525 | 56 | 48 | 0.0 | 0.9 | 0.00 | 0.07 | 0.07 | 84 | 1011.3 |
| 20260502195025 | 56 | 53 | 0.0 | 1.7 | 0.00 | 0.07 | 0.07 | 83 | 1011.3 |
| 20260502194525 | 56 | 43 | 0.0 | 0.0 | 0.00 | 0.07 | 0.07 | 85 | 1011.3 |
| 20260502193525 | 55 | 45 | 0.0 | 1.7 | 0.00 | 0.07 | 0.07 | 84 | 1011.5 |
| 20260502193025 | 55 | 44 | 0.0 | 2.6 | 0.00 | 0.07 | 0.07 | 85 | 1011.7 |
| 20260502192525 | 55 | 47 | 0.0 | 2.6 | 0.00 | 0.07 | 0.07 | 85 | 1011.7 |
| 20260502192025 | 55 | 58 | 0.0 | 1.7 | 0.00 | 0.07 | 0.07 | 85 | 1011.6 |
| 20260502191525 | 55 | 49 | 0.0 | 0.9 | 0.00 | 0.07 | 0.07 | 87 | 1011.6 |
| 20260502191025 | 55 | 43 | 0.0 | 0.0 | 0.00 | 0.07 | 0.07 | 89 | 1011.7 |
| 20260502190525 | 55 | 42 | 0.0 | 0.0 | 0.00 | 0.07 | 0.07 | 86 | 1011.8 |
| 20260502190025 | 55 | 57 | 0.0 | 2.6 | 0.00 | 0.07 | 0.07 | 86 | 1011.8 |
| 20260502185525 | 55 | 50 | 0.0 | 2.6 | 0.00 | 0.07 | 0.07 | 86 | 1011.8 |
| 20260502185025 | 55 | 59 | 0.0 | 2.6 | 0.00 | 0.07 | 0.07 | 88 | 1011.9 |
| 20260502184525 | 55 | 67 | 0.9 | 3.5 | 0.00 | 0.07 | 0.07 | 86 | 1012.0 |
| 20260502184025 | 55 | 55 | 0.0 | 3.5 | 0.00 | 0.07 | 0.07 | 89 | 1011.9 |
| 20260502183525 | 55 | 46 | 0.0 | 0.9 | 0.00 | 0.07 | 0.07 | 88 | 1011.9 |
| 20260502182525 | 54 | 43 | 0.0 | 0.9 | 0.00 | 0.07 | 0.07 | 89 | 1012.1 |
| 20260502182025 | 54 | 51 | 0.0 | 0.9 | 0.00 | 0.07 | 0.07 | 89 | 1012.2 |
| 20260502181525 | 54 | 54 | 0.0 | 0.9 | 0.00 | 0.07 | 0.07 | 88 | 1012.3 |
| 20260502164025 | 53 | 41 | 0.0 | 0.0 | 0.00 | 0.06 | 0.06 | 94 | 1013.0 |
| 20260502163525 | 52 | 56 | 0.9 | 2.6 | 0.00 | 0.06 | 0.06 | 93 | 1013.2 |
| 20260502163025 | 53 | 45 | 0.0 | 0.0 | 0.00 | 0.06 | 0.06 | 94 | 1013.2 |
| 20260502162525 | 53 | 44 | 0.0 | 0.0 | 0.00 | 0.06 | 0.06 | 94 | 1013.4 |
| 20260502162025 | 53 | 38 | 0.0 | 0.0 | 0.00 | 0.06 | 0.06 | 94 | 1013.4 |
| 20260502161525 | 52 | 43 | 0.0 | 0.9 | 0.00 | 0.06 | 0.06 | 94 | 1013.4 |
| 20260502161025 | 52 | 42 | 0.0 | 0.0 | 0.00 | 0.06 | 0.06 | 94 | 1013.5 |
| 20260502152025 | 53 | 43 | 0.0 | 0.9 | 0.02 | 0.06 | 0.06 | 95 | 1013.3 |
| 20260502151525 | 53 | 47 | 0.0 | 0.9 | 0.02 | 0.06 | 0.06 | 95 | 1013.2 |
| 20260502151025 | 52 | 51 | 0.0 | 0.9 | 0.02 | 0.06 | 0.06 | 94 | 1013.2 |
| 20260502130525 | 52 | 45 | 0.0 | 0.0 | 0.00 | 0.00 | 0.00 | 94 | 1012.4 |
| 20260502123525 | 52 | 40 | 0.0 | 0.0 | 0.00 | 0.00 | 0.00 | 93 | 1012.0 |
| 20260502123025 | 52 | 40 | 0.0 | 0.0 | 0.00 | 0.00 | 0.00 | 92 | 1011.8 |
| 20260502122525 | 52 | 39 | 0.0 | 0.0 | 0.00 | 0.00 | 0.00 | 92 | 1011.8 |
| 20260502121025 | 52 | 40 | 0.0 | 0.0 | 0.00 | 0.00 | 0.00 | 91 | 1012.0 |
| 20260502120525 | 52 | 43 | 0.0 | 0.9 | 0.00 | 0.00 | 0.00 | 91 | 1012.0 |
| 20260502115525 | 52 | 45 | 0.0 | 1.7 | 0.00 | 0.00 | 0.00 | 91 | 1011.9 |
| 20260502115025 | 53 | 40 | 0.0 | 0.0 | 0.00 | 0.00 | 0.00 | 91 | 1012.1 |
| 20260502114525 | 53 | 40 | 0.0 | 0.0 | 0.00 | 0.00 | 0.00 | 90 | 1012.1 |
| 20260502114025 | 53 | 40 | 0.0 | 0.0 | 0.00 | 0.00 | 0.00 | 90 | 1012.1 |
| 20260502113525 | 53 | 47 | 0.0 | 0.0 | 0.00 | 0.00 | 0.00 | 89 | 1012.1 |
| 20260502113025 | 53 | 42 | 0.0 | 0.0 | 0.00 | 0.00 | 0.00 | 88 | 1012.1 |
| 20260502112525 | 53 | 43 | 0.0 | 0.0 | 0.00 | 0.00 | 0.00 | 88 | 1012.2 |
| 20260502112025 | 53 | 46 | 0.0 | 0.0 | 0.00 | 0.00 | 0.00 | 86 | 1012.2 |
| 20260502111025 | 54 | 42 | 0.0 | 0.0 | 0.00 | 0.00 | 0.00 | 86 | 1012.2 |
| 20260502110525 | 54 | 40 | 0.0 | 0.0 | 0.00 | 0.00 | 0.00 | 85 | 1012.2 |
| 20260502105525 | 54 | 52 | 0.0 | 1.7 | 0.00 | 0.00 | 0.00 | 84 | 1012.2 |
| 20260502105025 | 54 | 43 | 0.0 | 0.0 | 0.00 | 0.00 | 0.00 | 85 | 1012.2 |
| 20260502104525 | 54 | 46 | 0.0 | 0.9 | 0.00 | 0.00 | 0.00 | 85 | 1012.2 |
| 20260502104025 | 54 | 42 | 0.0 | 0.0 | 0.00 | 0.00 | 0.00 | 86 | 1012.3 |
| 20260502103529 | 54 | 44 | 0.0 | 0.0 | 0.00 | 0.00 | 0.00 | 86 | 1012.3 |
| 20260502103025 | 54 | 32 | 0.0 | 0.0 | 0.00 | 0.00 | 0.00 | 85 | 1012.3 |
| 20260502102525 | 54 | 43 | 0.0 | 0.0 | 0.00 | 0.00 | 0.00 | 86 | 1012.3 |
| 20260502102025 | 54 | 45 | 0.0 | 0.0 | 0.00 | 0.00 | 0.00 | 86 | 1012.3 |
| 20260502101525 | 54 | 45 | 0.0 | 0.0 | 0.00 | 0.00 | 0.00 | 87 | 1012.3 |
| 20260502101025 | 54 | 50 | 0.0 | 0.0 | 0.00 | 0.00 | 0.00 | 87 | 1012.3 |
| 20260502091525 | 53 | 43 | 0.0 | 0.0 | 0.00 | 0.00 | 0.00 | 91 | 1012.1 |
| 20260502091025 | 53 | 36 | 0.0 | 0.0 | 0.00 | 0.00 | 0.00 | 91 | 1012.2 |
| 20260502090525 | 53 | 37 | 0.0 | 0.0 | 0.00 | 0.00 | 0.00 | 92 | 1012.2 |
| 20260502071525 | 53 | 44 | 0.0 | 0.0 | 0.00 | 0.00 | 0.00 | 92 | 1011.3 |
| 20260502071025 | 53 | 44 | 0.0 | 0.0 | 0.00 | 0.00 | 0.00 | 91 | 1011.2 |
| 20260502070525 | 53 | 44 | 0.0 | 0.0 | 0.00 | 0.00 | 0.00 | 92 | 1011.4 |
| 20260502070025 | 53 | 44 | 0.0 | 0.0 | 0.00 | 0.00 | 0.00 | 91 | 1011.3 |
| 20260502065525 | 53 | 44 | 0.0 | 0.0 | 0.00 | 0.00 | 0.00 | 92 | 1011.4 |
| 20260502064525 | 53 | 44 | 0.0 | 0.0 | 0.00 | 0.00 | 0.00 | 91 | 1011.5 |
| 20260502064025 | 53 | 44 | 0.0 | 0.0 | 0.00 | 0.00 | 0.00 | 91 | 1011.5 |
| 20260502063525 | 53 | 44 | 0.0 | 0.0 | 0.00 | 0.00 | 0.00 | 91 | 1011.5 |
| 20260502063025 | 53 | 44 | 0.0 | 0.0 | 0.00 | 0.00 | 0.00 | 91 | 1011.6 |
| 20260502062525 | 53 | 44 | 0.0 | 0.0 | 0.00 | 0.00 | 0.00 | 91 | 1011.7 |
| 20260502062025 | 53 | 44 | 0.0 | 0.0 | 0.00 | 0.00 | 0.00 | 91 | 1011.6 |
| 20260502061525 | 53 | 44 | 0.0 | 0.0 | 0.00 | 0.00 | 0.00 | 91 | 1011.8 |
| 20260502061025 | 53 | 44 | 0.0 | 0.0 | 0.00 | 0.00 | 0.00 | 91 | 1011.7 |
| 20260502060525 | 53 | 44 | 0.0 | 0.0 | 0.00 | 0.00 | 0.00 | 91 | 1011.7 |
| 20260502060025 | 53 | 44 | 0.0 | 0.0 | 0.00 | 0.00 | 0.00 | 91 | 1011.7 |
| 20260502055525 | 53 | 44 | 0.0 | 0.0 | 0.00 | 0.00 | 0.00 | 91 | 1011.7 |
| 20260502055025 | 53 | 44 | 0.0 | 0.0 | 0.00 | 0.00 | 0.00 | 91 | 1011.6 |
| 20260502054525 | 53 | 44 | 0.0 | 0.0 | 0.00 | 0.00 | 0.00 | 91 | 1011.9 |
| 20260502053525 | 53 | 44 | 0.0 | 0.0 | 0.00 | 0.00 | 0.00 | 91 | 1011.9 |
| 20260502053025 | 53 | 44 | 0.0 | 0.0 | 0.00 | 0.00 | 0.00 | 91 | 1011.9 |
| 20260502052525 | 53 | 44 | 0.0 | 0.0 | 0.00 | 0.00 | 0.00 | 91 | 1012.0 |
| 20260502052025 | 53 | 44 | 0.0 | 0.0 | 0.00 | 0.00 | 0.00 | 91 | 1012.1 |
| 20260502051525 | 53 | 44 | 0.0 | 0.0 | 0.00 | 0.00 | 0.00 | 91 | 1012.1 |